Time,TemperatureF,DewpointF,PressureIn,WindDirection,WindDirectionDegrees,WindSpeedMPH,WindSpeedGustMPH,Humidity,HourlyPrecipIn,Conditions,Clouds,dailyrainin,SoftwareType,DateUTC
2013-04-23 00:04:00,51.9,49.0,30.06,NW,325,2.5,2.5,91,0.00,,,0.00,TxWx,2013-04-23 05:04:00,
2013-04-23 00:10:00,50.8,48.0,30.08,NNE,32,1.9,3.1,90,0.00,,,0.00,TxWx,2013-04-23 05:10:00,
2013-04-23 00:15:00,49.4,46.0,30.08,NNW,347,2.5,5.0,91,0.00,,,0.00,TxWx,2013-04-23 05:15:00,
2013-04-23 00:21:00,48.5,47.0,30.08,North,10,3.1,5.6,92,0.00,,,0.00,TxWx,2013-04-23 05:21:00,
2013-04-23 00:26:00,47.8,46.0,30.07,NNW,347,4.3,4.3,93,0.00,,,0.00,TxWx,2013-04-23 05:26:00,
2013-04-23 00:31:00,47.0,45.0,30.06,NNW,347,3.7,5.6,93,0.00,,,0.00,TxWx,2013-04-23 05:31:00,
2013-04-23 00:37:00,46.6,45.0,30.07,NNW,347,1.9,4.3,94,0.00,,,0.00,TxWx,2013-04-23 05:37:00,
2013-04-23 00:42:00,46.4,44.0,30.08,North,10,4.3,5.0,94,0.00,,,0.00,TxWx,2013-04-23 05:42:00,
2013-04-23 00:47:00,46.1,45.0,30.08,NNW,347,1.9,8.0,95,0.00,,,0.00,TxWx,2013-04-23 05:47:00,
2013-04-23 00:53:00,45.7,45.0,30.08,North,10,4.3,6.8,95,0.00,,,0.00,TxWx,2013-04-23 05:53:00,
2013-04-23 00:58:00,45.3,44.0,30.08,NNW,347,3.7,6.2,95,0.00,,,0.00,TxWx,2013-04-23 05:58:00,
2013-04-23 01:04:00,44.9,44.0,30.10,SSW,212,2.5,8.0,95,0.00,,,0.00,TxWx,2013-04-23 06:04:00,
2013-04-23 01:09:00,44.7,44.0,30.13,NNW,347,2.5,6.8,95,0.00,,,0.00,TxWx,2013-04-23 06:09:00,
2013-04-23 01:14:00,44.0,43.0,30.14,ESE,122,3.1,8.0,95,0.00,,,0.00,TxWx,2013-04-23 06:14:00,
2013-04-23 01:19:00,43.6,43.0,30.12,NNE,32,4.3,6.2,95,0.00,,,0.00,TxWx,2013-04-23 06:19:00,
2013-04-23 01:25:00,42.9,42.0,30.12,NNW,347,2.5,12.4,95,0.00,,,0.00,TxWx,2013-04-23 06:25:00,
2013-04-23 01:30:00,42.5,42.0,30.11,ENE,77,6.2,13.0,95,0.00,,,0.00,TxWx,2013-04-23 06:30:00,
2013-04-23 01:35:00,42.3,41.0,30.09,NNW,347,0.6,5.0,96,0.00,,,0.00,TxWx,2013-04-23 06:35:00,
2013-04-23 01:40:00,42.3,41.0,30.10,NE,55,6.2,6.8,96,0.00,,,0.00,TxWx,2013-04-23 06:40:00,
2013-04-23 01:45:00,42.1,41.0,30.08,NNW,347,4.3,8.0,96,0.00,,,0.00,TxWx,2013-04-23 06:45:00,
2013-04-23 01:51:00,41.8,41.0,30.08,NW,325,2.5,5.6,96,0.00,,,0.00,TxWx,2013-04-23 06:51:00,
2013-04-23 01:56:00,41.6,41.0,30.10,NE,55,3.1,5.0,96,0.00,,,0.00,TxWx,2013-04-23 06:56:00,
2013-04-23 02:01:00,41.5,41.0,30.11,NNW,347,1.2,2.5,96,0.00,,,0.00,TxWx,2013-04-23 07:01:00,
2013-04-23 02:06:00,41.5,41.0,30.11,North,10,6.8,6.8,96,0.00,,,0.00,TxWx,2013-04-23 07:06:00,
2013-04-23 02:12:00,41.4,40.0,30.11,NE,55,1.9,6.8,97,0.00,,,0.00,TxWx,2013-04-23 07:12:00,
2013-04-23 02:17:00,41.3,40.0,30.11,NNE,32,1.2,5.0,97,0.00,,,0.00,TxWx,2013-04-23 07:17:00,
2013-04-23 02:22:00,41.2,40.0,30.10,NE,55,5.6,6.2,97,0.00,,,0.00,TxWx,2013-04-23 07:22:00,
2013-04-23 02:29:00,41.0,40.0,30.10,WNW,302,1.9,6.2,97,0.00,,,0.00,TxWx,2013-04-23 07:29:00,
2013-04-23 02:34:00,40.8,40.0,30.10,NNE,32,1.2,8.7,97,0.00,,,0.00,TxWx,2013-04-23 07:34:00,
2013-04-23 02:39:00,40.4,39.0,30.10,WNW,302,4.3,9.9,97,0.00,,,0.00,TxWx,2013-04-23 07:39:00,
2013-04-23 02:44:00,40.0,39.0,30.10,NNW,347,8.7,15.5,97,0.00,,,0.00,TxWx,2013-04-23 07:44:00,
2013-04-23 02:50:00,39.7,39.0,30.10,North,10,3.1,6.2,97,0.00,,,0.00,TxWx,2013-04-23 07:50:00,
2013-04-23 02:55:00,39.5,38.0,30.10,NE,55,1.9,14.9,98,0.00,,,0.00,TxWx,2013-04-23 07:55:00,
2013-04-23 03:00:00,39.3,38.0,30.11,North,10,2.5,7.4,98,0.00,,,0.00,TxWx,2013-04-23 08:00:00,
2013-04-23 03:06:00,39.1,38.0,30.11,North,10,3.1,8.0,98,0.00,,,0.00,TxWx,2013-04-23 08:06:00,
2013-04-23 03:11:00,39.1,38.0,30.11,NNE,32,8.0,8.0,98,0.00,,,0.00,TxWx,2013-04-23 08:11:00,
2013-04-23 03:16:00,38.8,38.0,30.11,NNE,32,5.6,6.8,98,0.00,,,0.00,TxWx,2013-04-23 08:16:00,
2013-04-23 03:21:00,38.7,38.0,30.11,NNE,32,2.5,6.2,98,0.00,,,0.00,TxWx,2013-04-23 08:21:00,
2013-04-23 03:26:00,38.7,39.0,30.11,North,10,3.1,8.0,99,0.00,,,0.00,TxWx,2013-04-23 08:26:00,
2013-04-23 03:31:00,38.6,39.0,30.10,North,10,2.5,6.2,99,0.00,,,0.00,TxWx,2013-04-23 08:31:00,
2013-04-23 03:37:00,38.4,38.0,30.10,NNW,347,3.7,6.2,99,0.00,,,0.00,TxWx,2013-04-23 08:37:00,
2013-04-23 03:42:00,38.2,38.0,30.10,NW,325,1.2,5.6,99,0.00,,,0.00,TxWx,2013-04-23 08:42:00,
2013-04-23 03:47:00,37.8,37.0,30.11,NNE,32,5.0,7.4,98,0.00,,,0.00,TxWx,2013-04-23 08:47:00,
2013-04-23 03:53:00,37.4,36.0,30.10,East,100,3.1,9.3,98,0.00,,,0.00,TxWx,2013-04-23 08:53:00,
2013-04-23 03:58:00,37.3,37.0,30.10,NNE,32,7.4,9.9,99,0.00,,,0.00,TxWx,2013-04-23 08:58:00,
2013-04-23 04:03:00,37.1,37.0,30.09,North,10,7.4,8.7,99,0.00,,,0.00,TxWx,2013-04-23 09:03:00,
2013-04-23 04:08:00,37.2,37.0,30.10,East,100,2.5,5.0,99,0.00,,,0.00,TxWx,2013-04-23 09:08:00,
2013-04-23 04:14:00,37.1,37.0,30.09,NNW,347,3.7,7.4,99,0.00,,,0.00,TxWx,2013-04-23 09:14:00,
2013-04-23 04:19:00,36.9,37.0,30.10,NE,55,7.4,9.3,99,0.00,,,0.00,TxWx,2013-04-23 09:19:00,
2013-04-23 04:24:00,36.8,37.0,30.10,NNE,32,2.5,5.6,99,0.00,,,0.00,TxWx,2013-04-23 09:24:00,
2013-04-23 04:30:00,36.8,37.0,30.11,North,10,5.0,8.0,99,0.00,,,0.00,TxWx,2013-04-23 09:30:00,
2013-04-23 04:35:00,36.8,37.0,30.12,NNE,32,4.3,6.8,99,0.00,,,0.00,TxWx,2013-04-23 09:35:00,
2013-04-23 04:40:00,36.8,37.0,30.12,NNW,347,5.6,7.4,99,0.00,,,0.00,TxWx,2013-04-23 09:40:00,
2013-04-23 04:46:00,36.6,37.0,30.12,NE,55,1.9,6.8,99,0.00,,,0.00,TxWx,2013-04-23 09:46:00,
2013-04-23 04:51:00,36.4,36.0,30.11,NNW,347,6.8,6.8,99,0.00,,,0.00,TxWx,2013-04-23 09:51:00,
2013-04-23 04:56:00,36.1,36.0,30.11,NNW,347,3.1,8.7,99,0.00,,,0.00,TxWx,2013-04-23 09:56:00,
2013-04-23 05:02:00,35.9,36.0,30.12,NE,55,3.1,10.5,99,0.00,,,0.00,TxWx,2013-04-23 10:02:00,
2013-04-23 05:07:00,35.6,36.0,30.11,NE,55,6.2,11.8,99,0.00,,,0.00,TxWx,2013-04-23 10:07:00,
2013-04-23 05:12:00,35.5,35.0,30.11,ENE,77,3.7,13.6,99,0.00,,,0.00,TxWx,2013-04-23 10:12:00,
2013-04-23 05:17:00,35.4,35.0,30.10,NNW,347,6.8,13.6,99,0.00,,,0.00,TxWx,2013-04-23 10:17:00,
2013-04-23 05:22:00,35.3,35.0,30.11,NE,55,3.1,9.9,99,0.00,,,0.00,TxWx,2013-04-23 10:22:00,
2013-04-23 05:28:00,35.3,35.0,30.11,NE,55,2.5,8.7,99,0.00,,,0.00,TxWx,2013-04-23 10:28:00,
2013-04-23 05:33:00,35.2,35.0,30.11,NW,325,4.3,8.0,99,0.00,,,0.00,TxWx,2013-04-23 10:33:00,
2013-04-23 05:38:00,35.1,35.0,30.10,NNW,347,6.8,11.1,99,0.00,,,0.00,TxWx,2013-04-23 10:38:00,
2013-04-23 05:44:00,35.0,35.0,30.11,East,100,3.1,9.9,99,0.00,,,0.00,TxWx,2013-04-23 10:44:00,
2013-04-23 05:49:00,35.2,35.0,30.12,ENE,77,3.1,3.7,99,0.00,,,0.00,TxWx,2013-04-23 10:49:00,
2013-04-23 05:54:00,35.1,35.0,30.11,NE,55,4.3,9.3,99,0.00,,,0.00,TxWx,2013-04-23 10:54:00,
2013-04-23 06:00:00,35.0,35.0,30.10,ENE,77,1.9,7.4,99,0.00,,,0.00,TxWx,2013-04-23 11:00:00,
2013-04-23 06:05:00,35.1,35.0,30.10,NNW,347,2.5,8.0,99,0.00,,,0.00,TxWx,2013-04-23 11:05:00,
2013-04-23 06:11:00,35.1,35.0,30.11,North,10,1.9,7.4,99,0.00,,,0.00,TxWx,2013-04-23 11:11:00,
2013-04-23 06:16:00,35.1,35.0,30.11,North,10,3.7,3.7,100,0.00,,,0.00,TxWx,2013-04-23 11:16:00,
2013-04-23 06:21:00,35.1,35.0,30.11,North,10,5.0,8.0,100,0.00,,,0.00,TxWx,2013-04-23 11:21:00,
2013-04-23 06:27:00,35.1,35.0,30.10,North,10,3.1,8.0,100,0.00,,,0.00,TxWx,2013-04-23 11:27:00,
2013-04-23 06:32:00,35.0,35.0,30.09,NNE,32,3.7,5.0,100,0.00,,,0.00,TxWx,2013-04-23 11:32:00,
2013-04-23 06:38:00,34.9,35.0,30.09,ENE,77,5.0,5.0,100,0.00,,,0.00,TxWx,2013-04-23 11:38:00,
2013-04-23 06:43:00,34.9,35.0,30.09,NE,55,2.5,8.7,100,0.00,,,0.00,TxWx,2013-04-23 11:43:00,
2013-04-23 06:49:00,34.8,35.0,30.08,ESE,122,2.5,9.3,100,0.00,,,0.00,TxWx,2013-04-23 11:49:00,
2013-04-23 06:55:00,34.8,35.0,30.09,NNE,32,1.9,6.2,100,0.00,,,0.00,TxWx,2013-04-23 11:55:00,
2013-04-23 07:00:00,34.7,35.0,30.09,North,10,2.5,11.8,100,0.00,,,0.00,TxWx,2013-04-23 12:00:00,
2013-04-23 07:05:00,34.7,35.0,30.10,East,100,4.3,7.4,100,0.00,,,0.00,TxWx,2013-04-23 12:05:00,
2013-04-23 07:11:00,34.7,35.0,30.10,North,10,4.3,6.8,100,0.00,,,0.00,TxWx,2013-04-23 12:11:00,
2013-04-23 07:17:00,34.6,35.0,30.09,North,10,5.6,6.8,100,0.00,,,0.00,TxWx,2013-04-23 12:17:00,
2013-04-23 07:22:00,34.6,35.0,30.09,NE,55,2.5,6.8,100,0.00,,,0.00,TxWx,2013-04-23 12:22:00,
2013-04-23 07:27:00,34.6,35.0,30.09,North,10,3.1,4.3,100,0.00,,,0.00,TxWx,2013-04-23 12:27:00,
2013-04-23 07:32:00,34.6,35.0,30.10,NNW,347,4.3,8.7,100,0.00,,,0.00,TxWx,2013-04-23 12:32:00,
2013-04-23 07:38:00,34.6,35.0,30.11,NW,325,2.5,5.0,100,0.00,,,0.00,TxWx,2013-04-23 12:38:00,
2013-04-23 07:43:00,34.6,35.0,30.11,NE,55,4.3,11.8,100,0.00,,,0.00,TxWx,2013-04-23 12:43:00,
2013-04-23 07:48:00,34.5,35.0,30.10,NNE,32,8.7,14.2,100,0.00,,,0.00,TxWx,2013-04-23 12:48:00,
2013-04-23 07:53:00,34.5,34.0,30.10,NW,325,4.3,9.3,100,0.00,,,0.00,TxWx,2013-04-23 12:53:00,
2013-04-23 07:59:00,34.5,35.0,30.10,East,100,3.1,7.4,100,0.00,,,0.00,TxWx,2013-04-23 12:59:00,
2013-04-23 08:04:00,34.4,34.0,30.12,North,10,7.4,7.4,100,0.00,,,0.00,TxWx,2013-04-23 13:04:00,
2013-04-23 08:09:00,34.5,35.0,30.14,NNW,347,2.5,4.3,99,0.00,,,0.00,TxWx,2013-04-23 13:09:00,
2013-04-23 08:15:00,34.5,35.0,30.14,North,10,3.1,9.3,100,0.00,,,0.00,TxWx,2013-04-23 13:15:00,
2013-04-23 08:20:00,34.5,34.0,30.13,North,10,0.6,3.1,100,0.00,,,0.00,TxWx,2013-04-23 13:20:00,
2013-04-23 08:26:00,34.3,34.0,30.14,NE,55,3.1,6.2,99,0.00,,,0.00,TxWx,2013-04-23 13:26:00,
2013-04-23 08:31:00,34.3,34.0,30.15,NNW,347,1.2,3.7,99,0.00,,,0.00,TxWx,2013-04-23 13:31:00,
2013-04-23 08:37:00,34.2,34.0,30.15,NNW,347,6.8,9.9,100,0.00,,,0.00,TxWx,2013-04-23 13:37:00,
2013-04-23 08:42:00,34.1,34.0,30.16,NE,55,6.2,8.7,100,0.00,,,0.00,TxWx,2013-04-23 13:42:00,
2013-04-23 08:48:00,34.1,34.0,30.17,North,10,1.9,9.3,100,0.00,,,0.00,TxWx,2013-04-23 13:48:00,
2013-04-23 08:53:00,33.9,34.0,30.17,NE,55,3.7,8.0,100,0.00,,,0.00,TxWx,2013-04-23 13:53:00,
2013-04-23 08:59:00,34.0,34.0,30.17,NNW,347,3.7,8.0,100,0.00,,,0.00,TxWx,2013-04-23 13:59:00,
2013-04-23 09:04:00,33.9,34.0,30.17,NE,55,1.2,5.6,100,0.00,,,0.00,TxWx,2013-04-23 14:04:00,
2013-04-23 09:09:00,33.9,34.0,30.16,NNW,347,6.2,9.9,100,0.00,,,0.00,TxWx,2013-04-23 14:09:00,
2013-04-23 09:14:00,33.8,34.0,30.15,NNW,347,1.9,5.0,100,0.00,,,0.00,TxWx,2013-04-23 14:14:00,
2013-04-23 09:20:00,33.7,34.0,30.15,NE,55,1.9,7.4,100,0.00,,,0.00,TxWx,2013-04-23 14:20:00,
2013-04-23 09:25:00,33.7,34.0,30.16,NNE,32,5.0,9.9,100,0.00,,,0.00,TxWx,2013-04-23 14:25:00,
2013-04-23 09:30:00,33.6,34.0,30.14,ENE,77,3.7,8.0,100,0.00,,,0.00,TxWx,2013-04-23 14:30:00,
2013-04-23 09:35:00,33.7,34.0,30.15,NNW,347,2.5,6.2,100,0.00,,,0.00,TxWx,2013-04-23 14:35:00,
2013-04-23 09:41:00,33.7,34.0,30.15,NNW,347,6.2,6.2,100,0.00,,,0.00,TxWx,2013-04-23 14:41:00,
2013-04-23 09:46:00,33.6,34.0,30.14,ENE,77,6.8,9.3,100,0.00,,,0.00,TxWx,2013-04-23 14:46:00,
2013-04-23 09:51:00,33.7,34.0,30.14,NNW,347,3.7,8.0,100,0.00,,,0.00,TxWx,2013-04-23 14:51:00,
2013-04-23 09:57:00,33.6,34.0,30.14,NNW,347,3.1,5.6,100,0.00,,,0.00,TxWx,2013-04-23 14:57:00,
2013-04-23 10:02:00,33.5,33.0,30.14,ESE,122,0.6,5.0,100,0.00,,,0.00,TxWx,2013-04-23 15:02:00,
2013-04-23 10:07:00,33.5,33.0,30.14,NNE,32,3.1,8.0,100,0.00,,,0.00,TxWx,2013-04-23 15:07:00,
2013-04-23 10:13:00,33.5,33.0,30.14,NW,325,1.9,3.7,100,0.00,,,0.00,TxWx,2013-04-23 15:13:00,
2013-04-23 10:19:00,33.5,34.0,30.14,North,10,3.1,5.6,100,0.00,,,0.00,TxWx,2013-04-23 15:19:00,
2013-04-23 10:24:00,33.4,33.0,30.14,ENE,77,5.6,8.0,100,0.00,,,0.00,TxWx,2013-04-23 15:24:00,
2013-04-23 10:29:00,33.4,33.0,30.14,ENE,77,4.3,9.9,100,0.00,,,0.00,TxWx,2013-04-23 15:29:00,
2013-04-23 10:35:00,33.4,33.0,30.13,NE,55,2.5,9.9,100,0.00,,,0.00,TxWx,2013-04-23 15:35:00,
2013-04-23 10:40:00,33.5,33.0,30.13,East,100,1.2,3.7,100,0.00,,,0.00,TxWx,2013-04-23 15:40:00,
2013-04-23 10:45:00,33.5,34.0,30.14,NNW,347,3.7,4.3,100,0.00,,,0.00,TxWx,2013-04-23 15:45:00,
2013-04-23 10:50:00,33.5,33.0,30.15,ENE,77,2.5,6.2,100,0.00,,,0.00,TxWx,2013-04-23 15:50:00,
2013-04-23 10:55:00,33.6,34.0,30.15,East,100,3.7,5.0,100,0.00,,,0.00,TxWx,2013-04-23 15:55:00,
2013-04-23 11:00:00,33.5,33.0,30.15,North,10,3.7,9.3,100,0.00,,,0.00,TxWx,2013-04-23 16:00:00,
2013-04-23 11:06:00,33.4,33.0,30.15,ENE,77,5.6,11.1,100,0.00,,,0.00,TxWx,2013-04-23 16:06:00,
2013-04-23 11:12:00,33.4,33.0,30.15,ENE,77,4.3,6.8,100,0.00,,,0.00,TxWx,2013-04-23 16:12:00,
2013-04-23 11:17:00,33.4,33.0,30.15,ENE,77,4.3,7.4,100,0.00,,,0.00,TxWx,2013-04-23 16:17:00,
2013-04-23 11:22:00,33.4,33.0,30.15,East,100,0.6,4.3,100,0.00,,,0.00,TxWx,2013-04-23 16:22:00,
2013-04-23 11:28:00,33.4,33.0,30.15,NE,55,11.8,11.8,100,0.00,,,0.00,TxWx,2013-04-23 16:28:00,
2013-04-23 11:33:00,33.4,33.0,30.14,NE,55,1.9,9.3,100,0.00,,,0.00,TxWx,2013-04-23 16:33:00,
2013-04-23 11:39:00,33.4,33.0,30.14,North,10,1.2,9.3,100,0.00,,,0.00,TxWx,2013-04-23 16:39:00,
2013-04-23 11:44:00,33.3,33.0,30.15,ENE,77,1.9,7.4,100,0.00,,,0.00,TxWx,2013-04-23 16:44:00,
2013-04-23 11:49:00,33.3,33.0,30.15,NNE,32,5.0,9.3,100,0.00,,,0.00,TxWx,2013-04-23 16:49:00,
2013-04-23 11:55:00,33.3,33.0,30.15,East,100,5.6,10.5,100,0.00,,,0.00,TxWx,2013-04-23 16:55:00,
2013-04-23 12:00:00,33.3,33.0,30.15,North,10,3.7,4.3,100,0.00,,,0.00,TxWx,2013-04-23 17:00:00,
2013-04-23 12:05:00,33.3,33.0,30.15,ENE,77,3.7,8.7,100,0.00,,,0.00,TxWx,2013-04-23 17:05:00,
2013-04-23 12:11:00,33.1,33.0,30.15,NNW,347,5.0,13.0,100,0.00,,,0.00,TxWx,2013-04-23 17:11:00,
2013-04-23 12:16:00,33.2,33.0,30.15,NNE,32,6.8,13.6,100,0.00,,,0.00,TxWx,2013-04-23 17:16:00,
2013-04-23 12:22:00,33.3,33.0,30.15,East,100,1.9,5.0,100,0.00,,,0.00,TxWx,2013-04-23 17:22:00,
2013-04-23 12:27:00,33.3,33.0,30.15,North,10,6.8,6.8,100,0.00,,,0.00,TxWx,2013-04-23 17:27:00,
2013-04-23 12:32:00,33.4,33.0,30.15,NNE,32,3.1,5.6,100,0.00,,,0.00,TxWx,2013-04-23 17:32:00,
2013-04-23 12:37:00,33.4,33.0,30.14,North,10,0.6,9.3,100,0.00,,,0.00,TxWx,2013-04-23 17:37:00,
2013-04-23 12:43:00,33.6,34.0,30.14,NNW,347,1.9,6.8,100,0.00,,,0.00,TxWx,2013-04-23 17:43:00,
2013-04-23 12:48:00,33.7,34.0,30.14,East,100,0.6,2.5,100,0.00,,,0.00,TxWx,2013-04-23 17:48:00,
2013-04-23 12:53:00,33.8,34.0,30.14,NE,55,0.6,2.5,100,0.00,,,0.00,TxWx,2013-04-23 17:53:00,
2013-04-23 12:58:00,33.4,33.0,30.14,NNE,32,1.9,6.8,100,0.00,,,0.00,TxWx,2013-04-23 17:58:00,
2013-04-23 13:04:00,33.3,33.0,30.14,North,10,4.3,7.4,100,0.00,,,0.00,TxWx,2013-04-23 18:04:00,
2013-04-23 13:09:00,33.2,33.0,30.14,East,100,2.5,6.8,100,0.00,,,0.00,TxWx,2013-04-23 18:09:00,
2013-04-23 13:14:00,33.3,33.0,30.15,NE,55,4.3,8.0,100,0.00,,,0.00,TxWx,2013-04-23 18:14:00,
2013-04-23 13:19:00,33.4,33.0,30.15,ENE,77,3.1,10.5,100,0.00,,,0.00,TxWx,2013-04-23 18:19:00,
2013-04-23 13:25:00,33.4,33.0,30.14,ESE,122,3.7,8.7,100,0.00,,,0.00,TxWx,2013-04-23 18:25:00,
2013-04-23 13:30:00,33.4,33.0,30.15,North,10,12.4,16.7,100,0.00,,,0.00,TxWx,2013-04-23 18:30:00,
2013-04-23 13:36:00,33.4,33.0,30.15,NNE,32,3.7,8.0,100,0.00,,,0.00,TxWx,2013-04-23 18:36:00,
2013-04-23 13:41:00,33.5,34.0,30.15,NNW,347,4.3,5.0,100,0.00,,,0.00,TxWx,2013-04-23 18:41:00,
2013-04-23 13:46:00,33.7,34.0,30.14,North,10,4.3,5.6,100,0.00,,,0.00,TxWx,2013-04-23 18:46:00,
2013-04-23 13:51:00,33.8,34.0,30.14,North,10,1.9,5.6,100,0.00,,,0.00,TxWx,2013-04-23 18:51:00,
2013-04-23 13:57:00,33.9,34.0,30.14,East,100,2.5,4.3,100,0.00,,,0.00,TxWx,2013-04-23 18:57:00,
2013-04-23 14:02:00,34.0,34.0,30.14,NE,55,3.1,5.0,100,0.00,,,0.00,TxWx,2013-04-23 19:02:00,
2013-04-23 14:08:00,34.0,34.0,30.14,NNW,347,1.2,5.0,100,0.00,,,0.00,TxWx,2013-04-23 19:08:00,
2013-04-23 14:13:00,33.9,34.0,30.14,NW,325,5.0,6.2,100,0.00,,,0.00,TxWx,2013-04-23 19:13:00,
2013-04-23 14:18:00,34.0,34.0,30.14,NW,325,1.9,6.2,100,0.00,,,0.00,TxWx,2013-04-23 19:18:00,
2013-04-23 14:24:00,33.9,34.0,30.14,ENE,77,4.3,5.6,100,0.00,,,0.00,TxWx,2013-04-23 19:24:00,
2013-04-23 14:29:00,34.0,34.0,30.14,North,10,4.3,9.3,100,0.00,,,0.00,TxWx,2013-04-23 19:29:00,
2013-04-23 14:34:00,34.2,34.0,30.14,NNW,347,1.2,5.0,100,0.00,,,0.00,TxWx,2013-04-23 19:34:00,
2013-04-23 14:40:00,34.1,34.0,30.14,East,100,1.2,3.1,100,0.00,,,0.00,TxWx,2013-04-23 19:40:00,
2013-04-23 14:45:00,34.2,34.0,30.14,North,10,9.3,12.4,100,0.00,,,0.00,TxWx,2013-04-23 19:45:00,
2013-04-23 14:50:00,34.1,34.0,30.13,NNW,347,3.1,8.0,100,0.00,,,0.00,TxWx,2013-04-23 19:50:00,
2013-04-23 14:55:00,34.1,34.0,30.13,NE,55,2.5,6.2,100,0.00,,,0.00,TxWx,2013-04-23 19:55:00,
2013-04-23 15:01:00,34.1,34.0,30.13,NE,55,3.7,5.6,100,0.00,,,0.00,TxWx,2013-04-23 20:01:00,
2013-04-23 15:06:00,34.0,34.0,30.12,North,10,4.3,6.8,100,0.00,,,0.00,TxWx,2013-04-23 20:06:00,
2013-04-23 15:11:00,34.1,34.0,30.12,ENE,77,5.0,6.8,100,0.00,,,0.00,TxWx,2013-04-23 20:11:00,
2013-04-23 15:16:00,34.2,34.0,30.12,NNE,32,2.5,5.0,100,0.00,,,0.00,TxWx,2013-04-23 20:16:00,
2013-04-23 15:23:00,34.4,34.0,30.12,NE,55,1.9,3.7,100,0.00,,,0.00,TxWx,2013-04-23 20:23:00,
2013-04-23 15:28:00,34.5,34.0,30.13,NNE,32,2.5,6.2,100,0.00,,,0.00,TxWx,2013-04-23 20:28:00,
2013-04-23 15:33:00,34.3,34.0,30.13,NW,325,7.4,9.3,100,0.00,,,0.00,TxWx,2013-04-23 20:33:00,
2013-04-23 15:38:00,34.2,34.0,30.12,NW,325,0.6,4.3,100,0.00,,,0.00,TxWx,2013-04-23 20:38:00,
2013-04-23 15:44:00,34.2,34.0,30.13,NE,55,2.5,3.7,99,0.00,,,0.00,TxWx,2013-04-23 20:44:00,
2013-04-23 15:49:00,34.3,34.0,30.13,NNW,347,2.5,8.7,99,0.00,,,0.00,TxWx,2013-04-23 20:49:00,
2013-04-23 15:54:00,34.5,34.0,30.13,East,100,3.7,8.0,99,0.00,,,0.00,TxWx,2013-04-23 20:54:00,
2013-04-23 16:00:00,34.6,35.0,30.13,NNW,347,6.2,7.4,99,0.00,,,0.00,TxWx,2013-04-23 21:00:00,
2013-04-23 16:05:00,34.7,35.0,30.13,NNE,32,4.3,5.6,99,0.00,,,0.00,TxWx,2013-04-23 21:05:00,
2013-04-23 16:10:00,34.7,34.0,30.13,North,10,2.5,6.2,98,0.00,,,0.00,TxWx,2013-04-23 21:10:00,
2013-04-23 16:16:00,34.5,33.0,30.13,West,280,3.7,11.1,98,0.00,,,0.00,TxWx,2013-04-23 21:16:00,
2013-04-23 16:21:00,34.6,34.0,30.13,NNW,347,3.1,6.2,97,0.00,,,0.00,TxWx,2013-04-23 21:21:00,
2013-04-23 16:26:00,34.6,34.0,30.13,NW,325,5.0,10.5,97,0.00,,,0.00,TxWx,2013-04-23 21:26:00,
2013-04-23 16:31:00,34.8,34.0,30.13,North,10,1.2,3.1,97,0.00,,,0.00,TxWx,2013-04-23 21:31:00,
2013-04-23 16:37:00,34.8,34.0,30.14,North,10,3.1,6.2,97,0.00,,,0.00,TxWx,2013-04-23 21:37:00,
2013-04-23 16:42:00,34.8,34.0,30.14,NE,55,3.7,4.3,97,0.00,,,0.00,TxWx,2013-04-23 21:42:00,
2013-04-23 16:47:00,34.9,34.0,30.14,NNE,32,3.1,6.2,97,0.00,,,0.00,TxWx,2013-04-23 21:47:00,
2013-04-23 16:52:00,34.8,34.0,30.14,NNW,347,2.5,4.3,97,0.00,,,0.00,TxWx,2013-04-23 21:52:00,
2013-04-23 16:58:00,35.0,34.0,30.14,NNW,347,1.9,3.7,97,0.00,,,0.00,TxWx,2013-04-23 21:58:00,
2013-04-23 17:03:00,35.0,34.0,30.14,North,10,2.5,6.2,97,0.00,,,0.00,TxWx,2013-04-23 22:03:00,
2013-04-23 17:08:00,35.1,34.0,30.14,NE,55,1.2,8.0,96,0.00,,,0.00,TxWx,2013-04-23 22:08:00,
2013-04-23 17:14:00,35.2,34.0,30.14,SW,235,0.6,1.2,96,0.00,,,0.00,TxWx,2013-04-23 22:14:00,
2013-04-23 17:19:00,35.3,34.0,30.14,NNE,32,2.5,6.2,96,0.00,,,0.00,TxWx,2013-04-23 22:19:00,
2013-04-23 17:25:00,35.3,34.0,30.14,NE,55,3.1,5.0,95,0.00,,,0.00,TxWx,2013-04-23 22:25:00,
2013-04-23 17:30:00,35.4,34.0,30.14,NE,55,3.7,5.6,95,0.00,,,0.00,TxWx,2013-04-23 22:30:00,
2013-04-23 17:36:00,35.4,33.0,30.14,North,10,1.2,2.5,94,0.00,,,0.00,TxWx,2013-04-23 22:36:00,
2013-04-23 17:41:00,35.5,33.0,30.14,ENE,77,3.1,6.8,94,0.00,,,0.00,TxWx,2013-04-23 22:41:00,
2013-04-23 17:46:00,35.5,34.0,30.14,North,10,1.2,6.8,94,0.00,,,0.00,TxWx,2013-04-23 22:46:00,
2013-04-23 17:51:00,35.8,34.0,30.14,ENE,77,2.5,3.1,94,0.00,,,0.00,TxWx,2013-04-23 22:51:00,
2013-04-23 17:57:00,35.9,34.0,30.14,ENE,77,1.9,4.3,93,0.00,,,0.00,TxWx,2013-04-23 22:57:00,
2013-04-23 18:02:00,35.8,34.0,30.14,NNE,32,3.7,6.2,93,0.00,,,0.00,TxWx,2013-04-23 23:02:00,
2013-04-23 18:07:00,35.9,34.0,30.14,NE,55,3.1,8.7,93,0.00,,,0.00,TxWx,2013-04-23 23:07:00,
2013-04-23 18:13:00,35.9,34.0,30.15,WSW,257,0.6,3.7,93,0.00,,,0.00,TxWx,2013-04-23 23:13:00,
2013-04-23 18:18:00,35.9,34.0,30.15,NE,55,3.7,5.0,93,0.00,,,0.00,TxWx,2013-04-23 23:18:00,
2013-04-23 18:23:00,35.9,34.0,30.15,NNW,347,1.9,6.2,93,0.00,,,0.00,TxWx,2013-04-23 23:23:00,
2013-04-23 18:29:00,36.0,34.0,30.15,NNW,347,2.5,5.6,93,0.00,,,0.00,TxWx,2013-04-23 23:29:00,
2013-04-23 18:34:00,36.0,34.0,30.15,WNW,302,3.1,3.7,92,0.00,,,0.00,TxWx,2013-04-23 23:34:00,
2013-04-23 18:39:00,36.2,34.0,30.15,NNE,32,0.6,3.1,92,0.00,,,0.00,TxWx,2013-04-23 23:39:00,
2013-04-23 18:44:00,36.2,34.0,30.16,North,10,3.7,4.3,93,0.00,,,0.00,TxWx,2013-04-23 23:44:00,
2013-04-23 18:50:00,36.1,34.0,30.15,North,10,2.5,5.6,92,0.00,,,0.00,TxWx,2013-04-23 23:50:00,
2013-04-23 18:55:00,36.0,34.0,30.16,WNW,302,1.2,6.8,91,0.00,,,0.00,TxWx,2013-04-23 23:55:00,
2013-04-23 19:00:00,36.1,34.0,30.16,NNE,32,1.9,4.3,92,0.00,,,0.00,TxWx,2013-04-24 00:00:00,
2013-04-23 19:06:00,36.0,34.0,30.16,NNE,32,1.2,4.3,91,0.00,,,0.00,TxWx,2013-04-24 00:06:00,
2013-04-23 19:11:00,36.0,34.0,30.16,NE,55,0.0,2.5,92,0.00,,,0.00,TxWx,2013-04-24 00:11:00,
2013-04-23 19:17:00,36.0,34.0,30.16,East,100,0.6,1.9,92,0.00,,,0.00,TxWx,2013-04-24 00:17:00,
2013-04-23 19:22:00,36.1,34.0,30.16,NNW,347,0.0,1.2,92,0.00,,,0.00,TxWx,2013-04-24 00:22:00,
2013-04-23 19:28:00,35.9,34.0,30.17,NNE,32,1.9,6.8,92,0.00,,,0.00,TxWx,2013-04-24 00:28:00,
2013-04-23 19:33:00,35.9,34.0,30.16,NNW,347,1.2,3.1,91,0.00,,,0.00,TxWx,2013-04-24 00:33:00,
2013-04-23 19:38:00,35.9,34.0,30.17,WNW,302,1.9,2.5,91,0.00,,,0.00,TxWx,2013-04-24 00:38:00,
2013-04-23 19:43:00,36.0,34.0,30.17,North,10,2.5,3.1,92,0.00,,,0.00,TxWx,2013-04-24 00:43:00,
2013-04-23 19:48:00,36.1,34.0,30.17,West,280,0.6,3.1,92,0.00,,,0.00,TxWx,2013-04-24 00:48:00,
2013-04-23 19:54:00,36.0,34.0,30.17,NNW,347,1.2,1.9,92,0.00,,,0.00,TxWx,2013-04-24 00:54:00,
2013-04-23 19:59:00,36.0,34.0,30.17,ENE,77,0.6,4.3,92,0.00,,,0.00,TxWx,2013-04-24 00:59:00,
2013-04-23 20:04:00,36.1,34.0,30.17,West,280,1.2,1.9,92,0.00,,,0.00,TxWx,2013-04-24 01:04:00,
2013-04-23 20:09:00,36.1,34.0,30.17,NW,325,1.2,1.9,92,0.00,,,0.00,TxWx,2013-04-24 01:09:00,
2013-04-23 20:15:00,36.1,34.0,30.17,NNW,347,1.9,4.3,92,0.00,,,0.00,TxWx,2013-04-24 01:15:00,
2013-04-23 20:20:00,36.2,34.0,30.18,SW,235,0.0,1.2,91,0.00,,,0.00,TxWx,2013-04-24 01:20:00,
2013-04-23 20:25:00,36.2,34.0,30.17,NNW,347,0.6,1.2,92,0.00,,,0.00,TxWx,2013-04-24 01:25:00,
2013-04-23 20:31:00,36.3,34.0,30.18,North,10,2.5,2.5,92,0.00,,,0.00,TxWx,2013-04-24 01:31:00,
2013-04-23 20:36:00,36.4,34.0,30.18,NE,55,0.0,0.6,92,0.00,,,0.00,TxWx,2013-04-24 01:36:00,
2013-04-23 20:41:00,36.3,34.0,30.18,NE,55,0.0,2.5,91,0.00,,,0.00,TxWx,2013-04-24 01:41:00,
2013-04-23 20:47:00,36.4,34.0,30.18,West,280,1.2,1.2,91,0.00,,,0.00,TxWx,2013-04-24 01:47:00,
2013-04-23 20:52:00,36.4,34.0,30.19,NW,325,0.0,0.6,91,0.00,,,0.00,TxWx,2013-04-24 01:52:00,
2013-04-23 20:57:00,36.5,34.0,30.19,NE,55,0.0,0.6,91,0.00,,,0.00,TxWx,2013-04-24 01:57:00,
2013-04-23 21:03:00,36.5,35.0,30.20,NNE,32,0.0,1.2,91,0.00,,,0.00,TxWx,2013-04-24 02:03:00,
2013-04-23 21:08:00,36.6,34.0,30.20,WNW,302,1.2,3.7,91,0.00,,,0.00,TxWx,2013-04-24 02:08:00,
2013-04-23 21:14:00,36.6,34.0,30.20,NE,55,0.0,0.6,91,0.00,,,0.00,TxWx,2013-04-24 02:14:00,
2013-04-23 21:20:00,36.7,34.0,30.21,WSW,257,0.0,1.2,91,0.00,,,0.00,TxWx,2013-04-24 02:20:00,
2013-04-23 21:26:00,36.7,34.0,30.21,NW,325,0.0,0.6,90,0.00,,,0.00,TxWx,2013-04-24 02:26:00,
2013-04-23 21:31:00,36.8,34.0,30.21,NW,325,2.5,2.5,89,0.00,,,0.00,TxWx,2013-04-24 02:31:00,
2013-04-23 21:37:00,36.8,34.0,30.21,NW,325,0.6,3.1,89,0.00,,,0.00,TxWx,2013-04-24 02:37:00,
2013-04-23 21:43:00,36.8,34.0,30.21,WNW,302,1.2,5.0,89,0.00,,,0.00,TxWx,2013-04-24 02:43:00,
2013-04-23 21:48:00,36.8,34.0,30.21,NNE,32,1.2,3.7,89,0.00,,,0.00,TxWx,2013-04-24 02:48:00,
2013-04-23 21:53:00,36.9,34.0,30.22,WNW,302,1.9,3.1,89,0.00,,,0.00,TxWx,2013-04-24 02:53:00,
2013-04-23 21:58:00,37.0,34.0,30.22,NW,325,2.5,2.5,88,0.00,,,0.00,TxWx,2013-04-24 02:58:00,
2013-04-23 22:03:00,37.0,34.0,30.22,WNW,302,2.5,2.5,88,0.00,,,0.00,TxWx,2013-04-24 03:03:00,
2013-04-23 22:08:00,36.9,34.0,30.23,NNE,32,3.1,6.8,88,0.00,,,0.00,TxWx,2013-04-24 03:08:00,
2013-04-23 22:14:00,37.0,33.0,30.23,NE,55,3.1,4.3,87,0.00,,,0.00,TxWx,2013-04-24 03:14:00,
2013-04-23 22:20:00,37.0,33.0,30.23,WNW,302,0.6,2.5,87,0.00,,,0.00,TxWx,2013-04-24 03:20:00,
2013-04-23 22:25:00,37.0,33.0,30.23,WNW,302,1.2,6.2,85,0.00,,,0.00,TxWx,2013-04-24 03:25:00,
2013-04-23 22:31:00,37.1,32.0,30.23,NE,55,0.6,4.3,84,0.00,,,0.00,TxWx,2013-04-24 03:31:00,
2013-04-23 22:37:00,37.1,32.0,30.24,NNW,347,2.5,6.2,83,0.00,,,0.00,TxWx,2013-04-24 03:37:00,
2013-04-23 22:42:00,37.1,32.0,30.24,NNE,32,2.5,6.8,82,0.00,,,0.00,TxWx,2013-04-24 03:42:00,
2013-04-23 22:47:00,36.8,32.0,30.24,North,10,7.4,9.3,83,0.00,,,0.00,TxWx,2013-04-24 03:47:00,
2013-04-23 22:54:00,36.3,32.0,30.25,ESE,122,0.6,7.4,86,0.00,,,0.00,TxWx,2013-04-24 03:54:00,
2013-04-23 22:59:00,35.8,33.0,30.25,NW,325,3.1,11.8,87,0.00,,,0.00,TxWx,2013-04-24 03:59:00,
2013-04-23 23:01:00,35.5,31.0,30.25,ENE,77,7.4,10.5,88,0.00,,,0.00,TxWx,2013-04-24 04:01:00,
2013-04-23 23:03:00,35.3,31.0,30.25,North,10,3.7,8.0,89,0.00,,,0.00,TxWx,2013-04-24 04:03:00,
2013-04-23 23:04:00,35.3,32.0,30.25,NE,55,5.0,5.6,90,0.00,,,0.00,TxWx,2013-04-24 04:04:00,
2013-04-23 23:08:00,34.9,33.0,30.25,NNW,347,3.1,5.0,91,0.00,,,0.00,TxWx,2013-04-24 04:08:00,
2013-04-23 23:09:00,34.9,33.0,30.25,NE,55,0.6,3.1,91,0.00,,,0.00,TxWx,2013-04-24 04:09:00,
2013-04-23 23:14:00,34.4,31.0,30.25,NNW,347,3.7,6.2,92,0.00,,,0.00,TxWx,2013-04-24 04:14:00,
2013-04-23 23:19:00,33.9,32.0,30.25,WNW,302,1.9,6.2,93,0.00,,,0.00,TxWx,2013-04-24 04:19:00,
2013-04-23 23:24:00,33.5,32.0,30.25,North,10,1.2,3.1,94,0.00,,,0.00,TxWx,2013-04-24 04:24:00,
2013-04-23 23:30:00,33.4,31.0,30.25,NNE,32,3.7,8.0,96,0.00,,,0.00,TxWx,2013-04-24 04:30:00,
2013-04-23 23:35:00,33.3,32.0,30.25,NNW,347,0.6,2.5,97,0.00,,,0.00,TxWx,2013-04-24 04:35:00,
2013-04-23 23:41:00,33.4,32.0,30.25,NNW,347,1.9,4.3,98,0.00,,,0.00,TxWx,2013-04-24 04:41:00,
2013-04-23 23:46:00,33.3,32.0,30.26,NNE,32,0.0,1.9,98,0.00,,,0.00,TxWx,2013-04-24 04:46:00,
2013-04-23 23:51:00,33.3,32.0,30.26,NNW,347,4.3,4.3,98,0.00,,,0.00,TxWx,2013-04-24 04:51:00,
2013-04-23 23:57:00,33.3,32.0,30.26,ENE,77,1.2,2.5,98,0.00,,,0.00,TxWx,2013-04-24 04:57:00,